When you browse on this site, cookies collect data to enhance your experience and personalize the content and advertising you see.
Visit our Privacy Policy to learn more. By continuing to use the site, you agree to this use of cookies and data.
  • In Latvia
  • List of Countries
  • For 7 days
  • Water Temperature
  • Satellite Maps
  • Weather Map
  • Weather Widgets
  • user-avatar
    Login

    Hourly Weather Manicaland

    Today, 24 January, Thursday

    Time Temperature Precipitation Wind Pressure Humidity
    00:00 +19°C° 0 mm 0 mps 672 mmHg 88%
    01:00 +19°C° 0 mm 0 mps 672 mmHg 90%
    02:00 +20°C° 0 mm 1 mps 672 mmHg 91%
    03:00 +20°C° 0 mm 1 mps 672 mmHg 92%
    04:00 +19°C° 0 mm 1 mps 672 mmHg 93%
    05:00 +19°C° 0 mm 1 mps 672 mmHg 95%
    06:00 +21°C° 0 mm 1 mps 673 mmHg 85%
    07:00 +21°C° 0 mm 0 mps 674 mmHg 76%
    08:00 +24°C° 0 mm 0 mps 675 mmHg 67%
    09:00 +27°C° 0 mm 1 mps 675 mmHg 57%
    10:00 +29°C° 0 mm 2 mps 675 mmHg 48%
    11:00 +30°C° 0 mm 3 mps 675 mmHg 38%
    12:00 +31°C° 0 mm 3 mps 675 mmHg 36%
    13:00 +33°C° 0 mm 4 mps 675 mmHg 34%
    14:00 +33°C° 0 mm 4 mps 674 mmHg 32%
    15:00 +33°C° 0 mm 4 mps 674 mmHg 34%
    16:00 +32°C° 0 mm 4 mps 674 mmHg 37%
    17:00 +30°C° 0 mm 4 mps 673 mmHg 39%
    18:00 +28°C° 0 mm 3 mps 673 mmHg 47%
    19:00 +26°C° 0 mm 2 mps 673 mmHg 56%
    20:00 +23°C° 0 mm 1 mps 674 mmHg 64%
    21:00 +22°C° 0 mm 1 mps 674 mmHg 69%
    22:00 +22°C° 0 mm 1 mps 674 mmHg 73%
    23:00 +21°C° 0 mm 1 mps 674 mmHg 78%

    Tomorrow, 25 January, Friday

    Time Temperature Precipitation Wind Pressure Humidity
    00:00 +20°C° 0 mm 1 mps 674 mmHg 80%
    01:00 +20°C° 0 mm 1 mps 674 mmHg 83%
    02:00 +20°C° 0 mm 1 mps 674 mmHg 86%
    03:00 +17°C° 0 mm 0 mps 674 mmHg 88%
    04:00 +17°C° 0 mm 0 mps 674 mmHg 89%
    05:00 +17°C° 0 mm 0 mps 674 mmHg 91%
    06:00 +19°C° 0 mm 0 mps 674 mmHg 83%
    07:00 +21°C° 0 mm 0 mps 675 mmHg 75%
    08:00 +23°C° 0 mm 0 mps 676 mmHg 67%
    09:00 +27°C° 0 mm 1 mps 677 mmHg 60%
    10:00 +29°C° 0 mm 1 mps 677 mmHg 54%
    11:00 +31°C° 0 mm 1 mps 677 mmHg 47%
    12:00 +31°C° 0 mm 2 mps 676 mmHg 47%
    13:00 +31°C° 0 mm 2 mps 676 mmHg 46%
    14:00 +31°C° 0 mm 2 mps 675 mmHg 45%
    15:00 +31°C° 0 mm 2 mps 675 mmHg 47%
    16:00 +30°C° 0 mm 2 mps 674 mmHg 48%
    17:00 +30°C° 0 mm 3 mps 674 mmHg 49%
    18:00 +28°C° 0 mm 2 mps 674 mmHg 59%
    19:00 +26°C° 0 mm 2 mps 675 mmHg 68%
    20:00 +24°C° 0 mm 1 mps 675 mmHg 77%
    21:00 +23°C° 0 mm 1 mps 675 mmHg 82%
    22:00 +23°C° 0 mm 1 mps 675 mmHg 86%
    23:00 +22°C° 0 mm 1 mps 676 mmHg 91%

    Day after tomorrow, 26 January, Saturday

    Time Temperature Precipitation Wind Pressure Humidity
    00:00 +21°C° 0 mm 1 mps 675 mmHg 92%
    01:00 +21°C° 0 mm 1 mps 675 mmHg 94%
    02:00 +20°C° 0 mm 1 mps 674 mmHg 95%
    03:00 +20°C° 0 mm 1 mps 674 mmHg 96%
    04:00 +20°C° 0 mm 1 mps 674 mmHg 96%
    05:00 +20°C° 0 mm 1 mps 674 mmHg 96%
    06:00 +22°C° 0 mm 1 mps 675 mmHg 88%
    07:00 +23°C° 0 mm 1 mps 676 mmHg 80%
    08:00 +25°C° 0 mm 1 mps 677 mmHg 72%
    09:00 +27°C° 0 mm 1 mps 677 mmHg 63%
    10:00 +29°C° 0 mm 1 mps 677 mmHg 53%
    11:00 +31°C° 0 mm 2 mps 678 mmHg 44%
    12:00 +32°C° 0 mm 2 mps 677 mmHg 40%
    13:00 +34°C° 0 mm 2 mps 676 mmHg 36%
    14:00 +35°C° 0 mm 2 mps 676 mmHg 33%
    15:00 +34°C° 0 mm 3 mps 675 mmHg 35%
    16:00 +34°C° 0 mm 3 mps 675 mmHg 38%
    17:00 +33°C° 0 mm 3 mps 675 mmHg 40%
    18:00 +29°C° 0.1 mm 3 mps 675 mmHg 52%
    19:00 +27°C° 0.1 mm 2 mps 675 mmHg 64%
    20:00 +24°C° 0.1 mm 2 mps 675 mmHg 76%
    21:00 +24°C° 0 mm 2 mps 675 mmHg 81%
    22:00 +23°C° 0 mm 1 mps 675 mmHg 86%
    23:00 +22°C° 0 mm 1 mps 676 mmHg 91%

    27 January, Sunday

    Time Temperature Precipitation Wind Pressure Humidity
    00:00 +22°C° 0 mm 1 mps 675 mmHg 91%
    01:00 +22°C° 0 mm 1 mps 675 mmHg 92%
    02:00 +21°C° 0 mm 1 mps 675 mmHg 92%
    03:00 +21°C° 0 mm 1 mps 675 mmHg 93%
    04:00 +21°C° 0 mm 1 mps 675 mmHg 93%
    05:00 +20°C° 0 mm 1 mps 675 mmHg 94%
    06:00 +22°C° 0 mm 1 mps 676 mmHg 85%
    07:00 +23°C° 0 mm 1 mps 677 mmHg 77%
    08:00 +25°C° 0 mm 1 mps 677 mmHg 68%
    09:00 +27°C° 0 mm 2 mps 678 mmHg 62%
    10:00 +28°C° 0 mm 2 mps 678 mmHg 55%
    11:00 +30°C° 0 mm 3 mps 678 mmHg 48%
    12:00 +30°C° 0.2 mm 3 mps 677 mmHg 50%
    13:00 +29°C° 0.2 mm 3 mps 676 mmHg 51%
    14:00 +29°C° 0.2 mm 4 mps 676 mmHg 53%
    15:00 +28°C° 1.2 mm 4 mps 675 mmHg 60%
    16:00 +27°C° 1.2 mm 3 mps 675 mmHg 68%
    17:00 +25°C° 1.2 mm 3 mps 675 mmHg 75%
    18:00 +24°C° 1.1 mm 3 mps 675 mmHg 80%
    19:00 +23°C° 1.1 mm 2 mps 676 mmHg 85%
    20:00 +21°C° 1.1 mm 2 mps 676 mmHg 90%
    21:00 +21°C° 0.2 mm 1 mps 676 mmHg 91%
    22:00 +21°C° 0.2 mm 1 mps 676 mmHg 92%
    23:00 +21°C° 0.2 mm 1 mps 676 mmHg 93%

    28 January, Monday

    Time Temperature Precipitation Wind Pressure Humidity
    00:00 +20°C° 0 mm 1 mps 676 mmHg 94%
    01:00 +20°C° 0 mm 1 mps 675 mmHg 95%
    02:00 +19°C° 0 mm 1 mps 675 mmHg 96%
    03:00 +20°C° 0.1 mm 1 mps 675 mmHg 95%
    04:00 +20°C° 0.1 mm 1 mps 675 mmHg 94%
    05:00 +20°C° 0.1 mm 1 mps 676 mmHg 94%
    06:00 +21°C° 0 mm 1 mps 676 mmHg 89%
    07:00 +22°C° 0 mm 1 mps 677 mmHg 84%
    08:00 +23°C° 0 mm 1 mps 677 mmHg 79%
    09:00 +25°C° 0 mm 1 mps 677 mmHg 71%
    10:00 +26°C° 0 mm 2 mps 677 mmHg 62%
    11:00 +28°C° 0 mm 2 mps 677 mmHg 54%
    12:00 +28°C° 0.2 mm 3 mps 677 mmHg 54%
    13:00 +28°C° 0.2 mm 3 mps 676 mmHg 54%
    14:00 +29°C° 0.2 mm 3 mps 676 mmHg 54%
    15:00 +28°C° 0.2 mm 3 mps 675 mmHg 56%
    16:00 +28°C° 0.2 mm 3 mps 675 mmHg 58%
    17:00 +27°C° 0.2 mm 3 mps 675 mmHg 60%
    18:00 +26°C° 0.1 mm 2 mps 675 mmHg 68%
    19:00 +24°C° 0.1 mm 2 mps 675 mmHg 76%
    20:00 +22°C° 0.1 mm 1 mps 675 mmHg 84%
    21:00 +22°C° 0 mm 1 mps 676 mmHg 87%
    22:00 +21°C° 0 mm 1 mps 676 mmHg 89%
    23:00 +21°C° 0 mm 1 mps 676 mmHg 92%

    29 January, Tuesday

    Time Temperature Precipitation Wind Pressure Humidity
    00:00 +20°C° 0 mm 1 mps 675 mmHg 93%
    01:00 +20°C° 0 mm 1 mps 675 mmHg 94%
    02:00 +19°C° 0 mm 1 mps 674 mmHg 95%
    03:00 +19°C° 0 mm 1 mps 674 mmHg 95%
    04:00 +19°C° 0 mm 1 mps 675 mmHg 95%
    05:00 +19°C° 0 mm 1 mps 675 mmHg 95%
    06:00 +20°C° 0 mm 1 mps 675 mmHg 91%
    07:00 +21°C° 0 mm 1 mps 676 mmHg 86%
    08:00 +21°C° 0 mm 1 mps 677 mmHg 82%
    09:00 +24°C° 0 mm 1 mps 677 mmHg 71%
    10:00 +27°C° 0 mm 1 mps 677 mmHg 60%
    11:00 +30°C° 0 mm 1 mps 678 mmHg 49%
    12:00 +30°C° 0 mm 2 mps 677 mmHg 46%
    13:00 +31°C° 0 mm 2 mps 676 mmHg 42%
    14:00 +33°C° 0 mm 3 mps 676 mmHg 39%
    15:00 +31°C° 0 mm 3 mps 675 mmHg 42%
    16:00 +30°C° 0 mm 3 mps 675 mmHg 45%
    17:00 +29°C° 0 mm 3 mps 675 mmHg 48%
    18:00 +27°C° 0 mm 2 mps 675 mmHg 58%
    19:00 +25°C° 0 mm 2 mps 675 mmHg 67%
    20:00 +23°C° 0 mm 1 mps 675 mmHg 76%
    21:00 +22°C° 0 mm 1 mps 675 mmHg 81%
    22:00 +21°C° 0 mm 1 mps 675 mmHg 86%
    23:00 +20°C° 0 mm 1 mps 675 mmHg 91%
    Show more